San Angelo, TX

4:14 AM CST on February 25, 2018 (GMT -0600)
San Angelo Regional-Mathis

Weather History for KSJT - November, 2012

Change the Weather History Date:

Saturday, November 24, 2012

  Actual Average Record
Temperature  
Mean Temperature 50 °F 52 °F  
Max Temperature 69 °F 65 °F 88 °F (1965)
Min Temperature 31 °F 39 °F 18 °F (2003)
Degree Days  
Heating Degree Days 15 13  
Month to date heating degree days 152 222  
Since 1 July heating degree days 269 313  
Cooling Degree Days 0 0  
Month to date cooling degree days 39 15  
Year to date cooling degree days 3224 2499  
Moisture  
Dew Point 29 °F    
Average Humidity 46    
Maximum Humidity 72    
Minimum Humidity 20    
Precipitation  
Precipitation 0.00 in 0.03 in 1.00 in (1914)
Month to date precipitation T 0.98  
Year to date precipitation 21.78 20.24  
Snow  
Snow 0.00 in 0.00 in 4.00 in (1957)
Month to date snowfall 0.0 0.2  
Since 1 July snowfall T 0.2  
Snow Depth 0.00 in    
Sea Level Pressure  
Sea Level Pressure 30.29 in    
Wind  
Wind Speed 6 mph (SW)    
Max Wind Speed 20 mph    
Max Gust Speed 24 mph    
Visibility 10 miles    
Events      
T = Trace of Precipitation, MM = Missing Value Source: NWS Daily Summary

Daily Weather History Graph

Daily Weather History Graph

Search for Another Location

Airport or City:

Trip Planner

Search our weather history database for the weather conditions in past years. The results will help you decide how hot, cold, wet, or windy it might be!

Date:

Astronomy

Nov. 24, 2012 Rise Set
Actual Time 7:17 AM CST 5:39 PM CST
Civil Twilight 6:51 AM CST 6:05 PM CST
Nautical Twilight 6:21 AM CST 6:35 PM CST
Astronomical Twilight 5:52 AM CST 7:04 PM CST
Moon 3:16 PM CST (11/24) 3:47 AM CST (11/24)
Length of Visible Light 11h 14m
Length of Day
10h 21m
Waxing Gibbous, 87% of the Moon is Illuminated
Nov 24
Waxing Gibbous
Nov 28
Full
Dec 6
Last Quarter
Dec 13
New
Dec 19
First Quarter

Hourly Weather History & Observations

Time (CST) Temp. Windchill Dew Point Humidity Pressure Visibility Wind Dir Wind Speed Gust Speed Precip Events Conditions
12:51 AM 39.0 °F 36.8 °F 23.0 °F 53% 30.44 in 10.0 mi NNE 3.5 mph - N/A   Clear
1:51 AM 36.0 °F 31.1 °F 24.1 °F 62% 30.45 in 10.0 mi WSW 5.8 mph - N/A   Clear
2:51 AM 37.0 °F 34.5 °F 25.0 °F 62% 30.45 in 10.0 mi West 3.5 mph - N/A   Clear
3:51 AM 33.1 °F 30.0 °F 25.0 °F 72% 30.43 in 10.0 mi SW 3.5 mph - N/A   Partly Cloudy
4:51 AM 34.0 °F 29.8 °F 24.1 °F 67% 30.42 in 10.0 mi WSW 4.6 mph - N/A   Mostly Cloudy
5:51 AM 34.0 °F 28.8 °F 23.0 °F 64% 30.42 in 10.0 mi WSW 5.8 mph - N/A   Clear
6:51 AM 34.0 °F - 24.1 °F 67% 30.43 in 10.0 mi Calm Calm - N/A   Mostly Cloudy
7:51 AM 32.0 °F 28.7 °F 24.1 °F 73% 30.44 in 10.0 mi SSW 3.5 mph - N/A   Clear
8:51 AM 39.9 °F - 26.1 °F 58% 30.43 in 10.0 mi Calm Calm - N/A   Clear
9:51 AM 48.9 °F - 25.0 °F 39% 30.40 in 10.0 mi South 6.9 mph - N/A   Clear
10:51 AM 55.0 °F - 25.0 °F 31% 30.36 in 10.0 mi South 8.1 mph - N/A   Clear
11:51 AM 60.1 °F - 23.0 °F 24% 30.33 in 10.0 mi WSW 4.6 mph - N/A   Clear
12:51 PM 63.0 °F - 21.9 °F 21% 30.27 in 10.0 mi West 8.1 mph - N/A   Clear
1:51 PM 64.9 °F - 25.0 °F 22% 30.21 in 10.0 mi South 6.9 mph - N/A   Clear
2:51 PM 66.9 °F - 30.0 °F 25% 30.17 in 10.0 mi SSW 8.1 mph - N/A   Clear
3:51 PM 68.0 °F - 35.1 °F 30% 30.14 in 10.0 mi South 6.9 mph - N/A   Clear
5:51 PM 63.0 °F - 39.9 °F 43% 30.12 in 10.0 mi SSW 5.8 mph - N/A   Clear
6:51 PM 57.0 °F - 39.9 °F 53% 30.12 in 10.0 mi South 5.8 mph - N/A   Clear
7:51 PM 55.0 °F - 39.0 °F 55% 30.13 in 10.0 mi South 4.6 mph - N/A   Clear
8:51 PM 53.1 °F - 36.0 °F 52% 30.12 in 10.0 mi SSW 5.8 mph - N/A   Clear
10:51 PM 55.9 °F - 35.1 °F 45% 30.07 in 10.0 mi SSW 13.8 mph 20.7 mph N/A   Clear